Weather in Seltso

Russia / Bryansk Oblast     53°22′26″N   34°06′21″E
temp.,
°C
wind,
m/s
gust,
m/s
humid.,
%
clouds,
%
prec.,
mm/h
press.,
hPa
HPBL,
m
15 april, thu
thu1500:00+11ne3683100 0.3 1015176
03:00+10ne2385100 0.3 101373
06:00+10e3889100 0.0 1013191
09:00+13ese476798 0.1 1012497
12:00+15e4556100 0.1 10111017
15:00+16sse56536 1.6 10111480
18:00+14s5757100 0.1 1012657
21:00+10sse127011 0.1 101310
16 april, fri
fri1600:00+11ne337169 0.0 101261
03:00+10ese3976100 0.0 1013276
06:00+8ese398720 0.0 1014333
09:00+11ese46695 0.0 1015642
12:00+13ese686256 0.6 10151430
15:00+16se794052 0.9 10142511
18:00+15sse474958 0.0 1015728
21:00+9s227048 0.0 101712
17 april, sat
sat1700:00+9nne11716 0.0 101710
03:00+9ene1172100 0.0 101812
06:00+7ene118497 0.0 101911
09:00+11ene0172100 0.0 1019375
12:00+14ene446699 0.4 10191044
15:00+11e5685100 5.1 1020563
18:00+11ne3989100 5.7 1019842
21:00+8ne1196100 8.6 102120
18 april, sun
sun1800:00+9e41094100 0.9 1021417
03:00+9ene4892100 1.9 1022442
06:00+8ene599097 0.1 1023375
09:00+8ene5984100 0.1 1023393
12:00+12e466794 0.0 10241051
15:00+14e5659100 0.0 10241470
18:00+13e486295 0.0 1024350
21:00+9ene4107436 0.0 1025229
19 april, mon
mon1900:00+7e3117784 0.0 1026241
03:00+6e41077100 0.0 1026216
06:00+5e41079100 0.0 1026217
09:00+10ese6106299 0.0 1026526
12:00+13ese71150100 0.0 10251494
15:00+14ese71151100 0.0 10231808
18:00+13e81356100 0.0 10221246
21:00+11ese81559100 0.0 1021825